Wind_Speed
12 11 11 10 9 8 6 4 5 6 7 9 10 10 10 10 9 8 7 7 7 7 8 8 8 8 9 9 10 10 10 9 8 9 9 8 8 8 8 7 7 7
13 12 12 11 10 9 8 6 7 8 8 9 9 10 10 10 9 9 8 8 8 7 8 7 7 7 7 8 8 9 9 9 9 9 9 9 9 9 9 9 8 8
13 12 12 11 10 11 10 8 9 9 9 9 9 9 9 9 9 8 8 8 7 6 6 5 4 4 4 5 6 6 8 8 8 8 8 9 9 9 9 9 9 9
12 12 12 11 11 11 11 10 11 11 11 10 9 9 8 8 7 7 6 5 5 4 4 3 2 1 1 2 2 3 4 5 5 5 5 6 7 7 7 8 8 8
14 13 12 11 11 12 12 12 12 12 12 10 9 8 7 6 5 4 3 2 1 1 1 0 1 2 2 2 2 2 2 2 3 3 2 3 3 4 4 5 5 6
17 15 13 13 13 12 13 13 12 12 12 11 10 8 7 6 4 3 2 1 0 1 2 2 3 3 3 4 3 3 3 2 2 2 2 2 1 2 2 2 2 3
19 16 15 16 14 11 12 13 13 13 12 11 10 9 7 6 4 3 2 1 0 1 2 3 4 4 4 4 4 4 4 3 4 4 3 3 3 3 2 2 2 2
19 17 17 17 15 13 12 12 12 13 13 11 10 10 8 6 4 3 3 2 3 3 3 3 4 5 5 5 5 5 4 4 4 5 5 4 4 3 3 3 3 3
19 18 18 18 16 15 13 11 11 13 13 12 11 10 8 6 5 6 6 6 6 6 6 6 6 7 7 7 7 6 6 6 5 4 5 5 4 3 3 3 4 4
18 18 17 17 17 17 15 13 12 13 14 14 12 11 9 8 8 9 9 9 9 9 10 10 9 9 9 9 8 8 8 8 8 7 6 5 4 4 4 4 4 4
18 18 17 16 18 19 17 15 14 13 14 15 14 13 13 12 11 12 13 12 12 14 15 14 12 12 12 13 13 13 12 11 12 11 10 8 7 6 6 6 6 6
18 19 17 17 19 19 18 17 16 15 15 16 15 15 16 15 14 15 16 14 16 19 20 19 19 18 17 17 17 18 17 16 17 17 15 13 12 11 11 10 8 8
18 18 17 18 20 20 20 21 19 17 17 17 16 16 17 16 16 17 18 17 19 21 22 23 23 23 22 21 20 20 19 19 20 21 20 17 16 16 16 15 13 12
14 15 16 19 21 21 21 21 20 17 15 15 16 16 16 17 18 20 20 20 21 23 23 23 24 24 24 23 22 19 18 18 20 20 20 18 18 18 18 17 17 16
10 12 15 18 19 19 19 18 16 15 15 15 16 16 16 18 20 21 21 22 23 24 23 23 23 24 24 24 23 21 20 20 20 20 20 21 21 21 20 18 17 17
11 13 15 16 17 17 17 15 14 15 17 18 19 18 18 19 20 20 20 19 18 18 19 18 18 19 19 18 18 17 18 18 18 19 20 21 22 21 20 18 17 17
11 12 13 15 16 15 13 11 9 10 10 12 14 14 13 14 14 13 11 10 10 10 10 10 10 10 8 8 8 10 11 12 13 15 16 17 18 19 19 19 18 19
11 12 12 12 12 11 9 7 6 5 4 4 5 6 5 6 6 6 7 7 8 8 8 8 9 9 7 5 6 8 8 8 9 10 11 12 14 15 16 17 18 19
9 10 10 9 8 7 6 4 3 3 2 2 2 2 3 4 5 6 7 8 8 9 9 9 10 10 9 6 6 7 8 8 8 8 9 10 11 12 12 14 15 15
6 6 6 5 5 5 4 3 3 2 2 1 2 3 4 6 7 9 9 10 10 11 11 10 10 10 10 8 7 8 9 9 9 9 9 10 11 11 11 12 13 13
5 5 5 6 6 6 5 5 5 5 4 4 5 5 6 8 9 10 10 10 10 11 11 12 12 12 12 10 10 10 10 11 11 10 10 10 11 11 11 12 12 12
7 7 8 8 8 8 7 7 7 7 6 5 5 5 5 6 6 6 7 7 8 8 9 9 10 11 12 12 12 12 12 12 12 11 11 10 10 11 11 11 11 10
7 7 7 7 8 8 7 7 7 6 5 4 3 3 4 4 5 5 6 8 9 9 9 9 9 9 9 10 10 11 11 11 11 10 10 10 10 10 9 9 9 8
5 5 5 6 6 7 7 7 7 6 5 4 4 4 4 5 6 7 8 9 9 10 10 11 12 11 9 9 9 9 9 9 9 9 9 9 9 8 8 7 6 6
5 6 6 6 6 7 7 7 7 7 6 6 6 6 7 7 8 8 9 10 11 12 13 14 13 11 9 8 8 8 8 8 8 8 8 8 8 7 6 6 5 6
13 14 14 13 13 12 11 10 9 9 8 8 8 8 8 8 9 9 11 12 14 15 16 16 13 10 7 7 7 7 7 7 7 7 7 8 7 6 6 6 7 8
Wind_Direction
234 243 252 262 259 239 218 190 162 145 135 124 119 121 119 116 114 109 103 97 91 90 88 82 77 74 74 75 76 74 75 74 72 72 69 68 70 68 65 64 67 71
232 240 247 255 250 229 208 186 166 152 141 134 131 128 124 121 121 117 114 111 106 102 97 91 85 78 74 75 74 75 76 75 72 70 69 70 70 67 65 63 66 70
227 238 246 253 244 223 206 186 172 161 151 148 143 136 131 127 125 123 120 119 118 113 106 99 89 78 71 71 73 74 76 75 72 69 69 71 71 69 67 65 65 67
227 237 248 250 235 218 206 193 182 170 162 160 154 146 141 136 133 130 125 125 128 127 124 117 105 87 53 49 62 64 69 73 70 67 65 65 70 72 70 70 68 67
228 236 242 235 221 211 205 200 193 182 173 170 165 159 154 149 147 142 137 143 145 150 157 122 327 308 314 326 344 356 13 41 42 44 45 44 56 60 61 67 68 68
225 230 228 217 207 205 206 207 204 195 186 180 176 172 168 164 161 150 144 148 353 343 346 357 346 336 331 329 336 338 333 333 340 342 338 339 355 7 19 34 42 53
224 224 217 211 205 203 208 209 210 208 199 190 186 184 180 171 167 167 164 158 16 341 342 347 346 345 338 334 340 339 334 333 334 335 329 323 319 312 319 327 330 343
224 220 214 213 212 212 213 209 212 215 208 203 200 197 193 185 192 217 237 265 278 279 285 294 307 314 313 315 324 330 339 345 345 344 339 335 329 310 298 300 304 311
220 216 214 218 215 212 213 207 211 216 212 211 208 202 203 209 229 251 258 267 270 266 270 276 277 279 283 289 297 303 310 317 323 331 335 342 345 332 314 308 307 311
220 215 217 222 215 211 211 205 208 216 213 213 214 214 218 224 240 257 261 265 266 263 267 270 268 271 272 272 276 278 280 286 291 293 296 303 314 317 314 314 316 317
222 220 222 221 213 213 215 210 212 219 219 222 226 228 227 228 242 256 260 266 269 268 265 258 258 271 274 270 269 268 266 267 271 275 277 279 282 283 283 287 294 301
218 219 220 216 211 214 218 216 220 230 234 237 238 237 236 237 242 249 255 264 269 269 267 261 262 269 275 276 272 267 267 266 267 270 272 271 274 275 274 273 273 276
215 213 210 208 209 213 216 217 225 235 241 244 243 241 241 241 240 243 252 263 268 269 269 268 268 268 271 279 279 272 270 268 270 276 277 273 272 274 274 272 271 269
211 208 208 209 211 213 215 218 225 231 238 244 244 243 242 241 243 246 254 264 271 275 274 272 273 271 272 278 279 273 270 269 272 280 282 277 273 274 274 273 271 269
205 204 209 211 212 214 216 221 230 234 238 244 246 247 248 249 250 253 259 268 273 276 275 273 273 274 274 276 275 272 270 270 273 277 276 272 271 273 272 270 267 266
209 209 210 211 214 220 225 233 245 247 246 248 249 252 255 255 256 259 266 274 276 274 273 272 273 275 275 275 275 276 276 274 274 275 274 272 271 270 268 264 259 259
197 202 206 208 212 219 224 226 234 238 238 240 242 245 249 253 258 266 275 284 287 282 277 273 274 278 282 283 284 288 288 282 275 274 275 276 274 271 267 263 258 254
162 168 174 180 187 192 195 193 194 197 199 208 217 226 241 256 269 280 288 293 295 293 289 282 278 280 287 297 297 295 297 292 281 278 280 281 279 275 271 266 263 260
156 159 160 161 165 168 172 173 176 181 188 201 226 249 265 276 280 280 282 284 286 288 287 285 283 282 283 286 288 291 295 296 292 288 287 286 284 281 275 270 269 266
167 172 170 169 167 167 171 168 165 175 197 226 255 266 269 272 273 274 276 278 279 281 282 281 282 281 277 269 267 277 287 293 296 295 293 291 289 286 282 276 272 267
193 195 194 193 190 188 191 188 187 195 206 219 236 245 252 258 262 267 271 276 280 283 281 279 277 275 272 266 264 271 280 287 292 294 295 296 294 292 290 285 280 274
191 193 194 194 194 194 195 192 190 191 194 205 223 232 239 249 258 266 275 286 297 302 300 293 284 276 271 267 267 272 278 284 288 292 296 298 296 295 293 287 282 276
183 187 191 195 198 198 196 193 190 190 194 208 224 233 245 257 267 277 290 301 309 314 317 316 311 298 281 271 269 272 277 281 286 291 295 297 297 296 293 286 282 282
189 192 196 200 205 205 203 202 202 206 217 230 241 249 259 266 274 284 294 301 306 310 311 312 313 309 296 282 276 276 278 282 285 288 293 299 303 307 308 304 300 299
244 243 241 239 238 235 231 230 230 235 243 251 260 267 274 281 288 295 299 303 306 308 311 312 311 306 297 287 283 281 283 285 285 286 295 306 312 316 319 314 306 297
260 260 261 261 258 256 255 256 258 261 265 269 273 277 283 288 295 298 301 304 307 309 313 313 309 303 296 292 291 292 291 286 285 291 304 315 316 310 305 299 291 285
Height
1530 1531 1532 1534 1535 1535 1536 1537 1537 1538 1538 1538 1539 1539 1540 1541 1542 1543 1544 1545 1546 1546 1547 1547 1548 1549 1550 1550 1550 1550 1550 1549 1549 1548 1548 1548 1548 1547 1547 1547 1547 1547
1529 1531 1532 1534 1535 1536 1537 1537 1538 1538 1538 1539 1539 1540 1541 1542 1543 1544 1545 1546 1547 1547 1548 1549 1550 1551 1551 1552 1552 1551 1551 1550 1550 1549 1549 1549 1548 1548 1548 1548 1548 1548
1528 1530 1532 1533 1535 1536 1537 1538 1538 1538 1539 1539 1540 1541 1542 1543 1544 1545 1546 1547 1548 1549 1549 1550 1551 1552 1553 1553 1553 1552 1552 1551 1551 1551 1551 1550 1550 1550 1549 1549 1549 1549
1528 1529 1531 1533 1534 1536 1537 1538 1538 1539 1539 1540 1541 1542 1543 1544 1545 1546 1547 1548 1549 1549 1550 1551 1552 1553 1553 1554 1553 1553 1553 1552 1552 1552 1552 1552 1551 1551 1551 1550 1550 1550
1526 1528 1530 1531 1533 1535 1536 1537 1538 1539 1539 1540 1541 1542 1543 1544 1545 1546 1547 1548 1549 1550 1551 1552 1553 1553 1554 1554 1554 1554 1553 1553 1552 1552 1552 1552 1552 1552 1552 1551 1551 1551
1524 1526 1528 1530 1532 1533 1535 1537 1538 1539 1540 1541 1542 1543 1544 1545 1546 1547 1548 1549 1549 1550 1551 1552 1553 1553 1554 1555 1554 1554 1554 1553 1553 1552 1552 1553 1553 1553 1552 1552 1552 1552
1523 1525 1527 1529 1531 1532 1534 1536 1538 1540 1540 1541 1542 1543 1544 1545 1546 1547 1548 1549 1550 1550 1551 1552 1553 1553 1554 1554 1554 1554 1554 1554 1554 1553 1553 1553 1553 1553 1553 1553 1552 1552
1522 1524 1526 1529 1531 1532 1534 1535 1537 1539 1540 1541 1542 1543 1544 1545 1546 1547 1548 1549 1550 1550 1551 1551 1552 1553 1553 1554 1554 1554 1554 1554 1554 1554 1553 1553 1553 1553 1553 1553 1553 1552
1521 1523 1525 1528 1529 1531 1533 1535 1537 1539 1540 1541 1542 1542 1544 1545 1546 1547 1548 1549 1549 1550 1551 1551 1551 1552 1552 1553 1553 1553 1554 1554 1554 1554 1553 1553 1553 1553 1553 1553 1553 1552
1520 1522 1524 1526 1528 1530 1532 1534 1536 1538 1539 1540 1541 1542 1543 1544 1546 1547 1548 1548 1549 1550 1550 1550 1551 1551 1551 1552 1552 1552 1552 1552 1553 1553 1553 1552 1552 1552 1552 1552 1552 1552
1519 1521 1523 1525 1528 1529 1531 1533 1534 1537 1538 1539 1540 1541 1542 1543 1544 1546 1547 1548 1548 1549 1549 1549 1549 1549 1550 1550 1551 1551 1550 1550 1551 1551 1551 1551 1551 1551 1551 1551 1552 1552
1518 1520 1522 1524 1526 1528 1530 1531 1533 1535 1537 1538 1539 1540 1541 1542 1542 1544 1545 1546 1547 1547 1548 1548 1548 1548 1548 1548 1549 1549 1549 1548 1548 1549 1549 1549 1549 1550 1550 1550 1550 1550
1517 1520 1522 1523 1525 1526 1528 1530 1532 1534 1535 1537 1538 1539 1539 1540 1541 1542 1543 1543 1544 1545 1545 1546 1546 1545 1546 1546 1546 1547 1547 1546 1546 1547 1547 1548 1548 1548 1548 1548 1548 1548
1517 1520 1522 1523 1524 1526 1527 1529 1530 1532 1534 1535 1536 1537 1538 1538 1539 1540 1540 1541 1541 1542 1542 1542 1542 1543 1543 1543 1544 1545 1544 1543 1543 1544 1545 1546 1546 1546 1546 1546 1546 1546
1517 1519 1521 1522 1524 1526 1527 1528 1529 1531 1533 1534 1534 1535 1536 1537 1537 1538 1538 1538 1538 1539 1539 1539 1539 1540 1541 1541 1541 1542 1542 1541 1541 1542 1542 1543 1543 1544 1544 1543 1543 1544
1517 1518 1520 1521 1523 1525 1526 1527 1528 1529 1530 1531 1532 1533 1533 1534 1535 1535 1536 1536 1536 1536 1536 1537 1537 1538 1538 1538 1538 1539 1539 1539 1539 1540 1540 1540 1540 1541 1541 1541 1541 1541
1516 1517 1519 1521 1522 1523 1525 1525 1526 1527 1528 1529 1530 1531 1531 1532 1533 1533 1534 1534 1534 1535 1535 1536 1537 1537 1537 1537 1537 1536 1537 1537 1538 1538 1538 1537 1537 1537 1538 1538 1538 1538
1516 1517 1519 1520 1521 1522 1523 1524 1525 1526 1527 1528 1529 1530 1530 1531 1531 1532 1533 1533 1534 1534 1535 1535 1535 1535 1536 1536 1535 1535 1536 1536 1536 1536 1535 1535 1535 1535 1535 1535 1535 1536
1517 1517 1518 1519 1520 1521 1522 1523 1524 1525 1526 1527 1528 1529 1529 1530 1531 1532 1533 1533 1534 1534 1534 1534 1534 1534 1534 1534 1535 1535 1535 1535 1534 1534 1533 1533 1533 1533 1533 1533 1533 1533
1517 1517 1518 1518 1519 1520 1520 1521 1522 1524 1525 1526 1528 1529 1530 1530 1531 1532 1532 1533 1533 1533 1533 1533 1533 1533 1533 1534 1534 1534 1534 1534 1533 1532 1532 1532 1531 1531 1531 1531 1531 1531
1517 1517 1518 1518 1519 1519 1520 1521 1523 1524 1526 1527 1528 1529 1530 1531 1531 1531 1531 1531 1531 1531 1531 1531 1532 1532 1532 1533 1533 1533 1532 1532 1532 1531 1531 1530 1530 1530 1529 1529 1529 1529
1518 1518 1519 1519 1520 1520 1521 1522 1523 1525 1526 1527 1528 1529 1530 1530 1530 1530 1530 1530 1530 1530 1530 1530 1531 1531 1531 1531 1531 1531 1531 1530 1530 1530 1529 1529 1528 1528 1528 1528 1528 1527
1519 1519 1520 1520 1521 1521 1522 1522 1523 1524 1525 1526 1527 1528 1529 1529 1529 1530 1530 1529 1529 1529 1529 1530 1530 1530 1530 1529 1529 1529 1529 1529 1528 1528 1528 1528 1527 1527 1527 1527 1527 1527
1519 1520 1520 1520 1521 1521 1521 1522 1522 1523 1524 1524 1525 1526 1527 1527 1528 1528 1528 1528 1528 1528 1528 1528 1528 1528 1528 1528 1528 1527 1527 1527 1527 1527 1527 1527 1526 1526 1526 1526 1526 1526
1519 1520 1520 1520 1521 1521 1521 1521 1522 1522 1522 1523 1523 1524 1524 1525 1526 1526 1526 1527 1527 1527 1527 1526 1526 1526 1526 1526 1526 1526 1526 1526 1526 1526 1526 1526 1526 1526 1526 1526 1526 1526
1519 1519 1519 1520 1520 1520 1520 1521 1520 1521 1521 1521 1522 1522 1522 1523 1523 1524 1524 1524 1524 1524 1524 1524 1524 1524 1524 1524 1524 1524 1524 1524 1524 1525 1525 1525 1525 1525 1525 1526 1526 1526